TimeEST,TemperatureF,Dew PointF,Humidity,Sea Level PressureIn,VisibilityMPH,Wind Direction,Wind SpeedMPH,Gust SpeedMPH,PrecipitationIn,Events,Conditions,WindDirDegrees,DateUTC
12:15 AM,21.2,3.2,46,29.81,10.0,West,16.1,20.7,N/A,,Clear,260,2014-01-26 05:15:00
12:35 AM,21.2,1.4,42,29.81,10.0,West,9.2,18.4,N/A,,Clear,280,2014-01-26 05:35:00
12:55 AM,21.2,1.4,42,29.82,10.0,WNW,10.4,-,N/A,,Clear,290,2014-01-26 05:55:00
1:15 AM,19.4,-0.4,42,29.82,10.0,West,8.1,-,N/A,,Clear,270,2014-01-26 06:15:00
1:35 AM,19.4,-0.4,42,29.84,10.0,WSW,6.9,-,N/A,,Clear,240,2014-01-26 06:35:00
1:55 AM,17.6,-0.4,45,29.83,10.0,SW,5.8,-,N/A,,Clear,230,2014-01-26 06:55:00
2:15 AM,15.8,-0.4,49,29.83,10.0,SW,5.8,-,N/A,,Clear,230,2014-01-26 07:15:00
2:35 AM,17.6,1.4,49,29.84,10.0,West,6.9,-,N/A,,Clear,260,2014-01-26 07:35:00
2:55 AM,17.6,1.4,49,29.84,10.0,West,6.9,-,N/A,,Clear,260,2014-01-26 07:55:00
3:15 AM,17.6,-0.4,45,29.84,10.0,WSW,5.8,-,N/A,,Clear,250,2014-01-26 08:15:00
3:35 AM,12.2,-0.4,57,29.83,10.0,West,3.5,-,N/A,,Clear,270,2014-01-26 08:35:00
3:55 AM,14.0,-0.4,53,29.84,10.0,Calm,Calm,-,N/A,,Clear,0,2014-01-26 08:55:00
4:15 AM,15.8,-0.4,49,29.84,10.0,Calm,Calm,-,N/A,,Clear,0,2014-01-26 09:15:00
4:35 AM,14.0,-0.4,53,29.83,10.0,Calm,Calm,-,N/A,,Clear,0,2014-01-26 09:35:00
4:55 AM,14.0,-0.4,53,29.82,10.0,SE,3.5,-,N/A,,Clear,140,2014-01-26 09:55:00
5:15 AM,15.8,-0.4,49,29.81,10.0,South,4.6,-,N/A,,Mostly Cloudy,180,2014-01-26 10:15:00
5:35 AM,12.2,-0.4,57,29.80,10.0,SSW,5.8,-,N/A,,Scattered Clouds,200,2014-01-26 10:35:00
5:55 AM,14.0,1.4,57,29.82,10.0,SW,4.6,-,N/A,,Mostly Cloudy,230,2014-01-26 10:55:00
6:15 AM,17.6,1.4,49,29.81,10.0,SW,5.8,-,N/A,,Overcast,230,2014-01-26 11:15:00
6:35 AM,17.6,1.4,49,29.81,10.0,South,4.6,-,N/A,,Overcast,190,2014-01-26 11:35:00
6:55 AM,17.6,1.4,49,29.81,10.0,South,4.6,-,N/A,,Scattered Clouds,180,2014-01-26 11:55:00
7:15 AM,17.6,-0.4,45,29.79,10.0,South,4.6,-,N/A,,Clear,170,2014-01-26 12:15:00
7:35 AM,14.0,-0.4,53,29.80,10.0,SSW,5.8,-,N/A,,Clear,200,2014-01-26 12:35:00
7:55 AM,14.0,-0.4,53,29.79,10.0,SSW,8.1,-,N/A,,Clear,210,2014-01-26 12:55:00
8:15 AM,17.6,-0.4,45,29.78,10.0,SSW,9.2,-,N/A,,Clear,200,2014-01-26 13:15:00
8:35 AM,21.2,-0.4,39,29.77,10.0,SSW,13.8,-,N/A,,Clear,210,2014-01-26 13:35:00
8:55 AM,23.0,1.4,39,29.76,10.0,SW,11.5,-,N/A,,Mostly Cloudy,230,2014-01-26 13:55:00
9:15 AM,21.2,3.2,46,29.76,10.0,SW,11.5,-,N/A,,Overcast,230,2014-01-26 14:15:00
9:35 AM,23.0,5.0,46,29.77,10.0,SW,10.4,-,N/A,,Overcast,230,2014-01-26 14:35:00
9:55 AM,26.6,5.0,40,29.77,10.0,SW,10.4,-,N/A,,Overcast,220,2014-01-26 14:55:00
10:15 AM,28.4,5.0,37,29.77,10.0,WSW,10.4,-,N/A,,Overcast,240,2014-01-26 15:15:00
10:35 AM,28.4,6.8,40,29.79,10.0,SW,13.8,-,N/A,,Overcast,220,2014-01-26 15:35:00
10:55 AM,30.2,10.4,44,29.79,10.0,SSW,17.3,23.0,N/A,,Overcast,210,2014-01-26 15:55:00
11:15 AM,30.2,10.4,44,29.78,10.0,SSW,17.3,-,N/A,,Overcast,210,2014-01-26 16:15:00
11:35 AM,32.0,10.4,41,29.78,10.0,SSW,11.5,-,N/A,,Overcast,210,2014-01-26 16:35:00
11:55 AM,33.8,12.2,41,29.78,10.0,SW,15.0,19.6,N/A,,Mostly Cloudy,230,2014-01-26 16:55:00
12:15 PM,33.8,15.8,48,29.77,7.0,SW,19.6,29.9,N/A,,Clear,230,2014-01-26 17:15:00
12:35 PM,33.8,17.6,52,29.75,7.0,SW,18.4,26.5,N/A,,Clear,230,2014-01-26 17:35:00
12:55 PM,35.6,19.4,52,29.74,10.0,SW,18.4,26.5,N/A,,Clear,230,2014-01-26 17:55:00
1:15 PM,37.4,23.0,56,29.74,10.0,SW,21.9,29.9,N/A,,Clear,220,2014-01-26 18:15:00
1:35 PM,37.4,24.8,60,29.73,10.0,SW,21.9,29.9,N/A,,Clear,220,2014-01-26 18:35:00
1:55 PM,39.2,24.8,56,29.72,10.0,SW,23.0,29.9,N/A,,Clear,220,2014-01-26 18:55:00
2:15 PM,39.2,26.6,61,29.72,10.0,SW,21.9,29.9,N/A,,Clear,230,2014-01-26 19:15:00
2:35 PM,41.0,26.6,57,29.72,10.0,SW,19.6,27.6,N/A,,Clear,220,2014-01-26 19:35:00
2:55 PM,41.0,26.6,57,29.71,10.0,SW,21.9,28.8,N/A,,Clear,230,2014-01-26 19:55:00
3:15 PM,42.8,26.6,53,29.70,10.0,SSW,12.7,26.5,N/A,,Clear,200,2014-01-26 20:15:00
3:35 PM,42.8,26.6,53,29.71,10.0,SSW,15.0,19.6,N/A,,Clear,210,2014-01-26 20:35:00
3:55 PM,42.8,26.6,53,29.71,10.0,SSW,16.1,-,N/A,,Clear,210,2014-01-26 20:55:00
4:15 PM,42.8,28.4,57,29.71,10.0,SSW,13.8,-,N/A,,Clear,200,2014-01-26 21:15:00
4:35 PM,42.8,28.4,57,29.71,10.0,SSW,15.0,-,N/A,,Clear,200,2014-01-26 21:35:00
4:55 PM,41.0,28.4,61,29.72,10.0,SSW,10.4,-,N/A,,Clear,210,2014-01-26 21:55:00
5:15 PM,41.0,28.4,61,29.72,10.0,SSW,9.2,-,N/A,,Clear,210,2014-01-26 22:15:00
5:35 PM,41.0,28.4,61,29.72,10.0,SSW,8.1,-,N/A,,Clear,210,2014-01-26 22:35:00
5:55 PM,41.0,28.4,61,29.72,10.0,South,9.2,16.1,N/A,,Clear,190,2014-01-26 22:55:00
6:15 PM,41.0,30.2,65,29.72,10.0,SSW,12.7,-,N/A,,Clear,200,2014-01-26 23:15:00
6:35 PM,41.0,30.2,65,29.71,10.0,SSW,19.6,24.2,N/A,,Clear,200,2014-01-26 23:35:00
6:55 PM,41.0,30.2,65,29.71,10.0,SSW,24.2,29.9,N/A,,Clear,200,2014-01-26 23:55:00
7:15 PM,42.8,30.2,61,29.71,10.0,SSW,16.1,29.9,N/A,,Clear,210,2014-01-27 00:15:00
7:35 PM,41.0,30.2,65,29.72,10.0,SSW,18.4,26.5,N/A,,Clear,210,2014-01-27 00:35:00
7:55 PM,42.8,30.2,61,29.72,10.0,SW,20.7,29.9,N/A,,Clear,220,2014-01-27 00:55:00
8:15 PM,42.8,30.2,61,29.73,10.0,SW,11.5,23.0,N/A,,Clear,220,2014-01-27 01:15:00
8:35 PM,42.8,30.2,61,29.73,10.0,WSW,20.7,31.1,N/A,,Clear,240,2014-01-27 01:35:00
8:55 PM,42.8,30.2,61,29.73,10.0,SW,17.3,23.0,N/A,,Clear,230,2014-01-27 01:55:00
9:15 PM,42.8,30.2,61,29.73,10.0,SW,24.2,29.9,N/A,,Clear,230,2014-01-27 02:15:00
9:35 PM,42.8,30.2,61,29.73,10.0,SW,18.4,29.9,N/A,,Clear,230,2014-01-27 02:35:00
9:55 PM,42.8,30.2,61,29.73,10.0,SW,20.7,34.5,N/A,,Clear,230,2014-01-27 02:55:00
10:15 PM,42.8,30.2,61,29.73,10.0,SW,21.9,28.8,N/A,,Clear,230,2014-01-27 03:15:00
10:35 PM,41.0,30.2,65,29.73,10.0,SW,24.2,32.2,N/A,,Clear,230,2014-01-27 03:35:00
10:55 PM,41.0,30.2,65,29.74,10.0,SW,21.9,31.1,N/A,,Clear,230,2014-01-27 03:55:00
11:15 PM,42.8,30.2,61,29.74,10.0,SW,20.7,32.2,N/A,,Scattered Clouds,230,2014-01-27 04:15:00
11:35 PM,42.8,30.2,61,29.74,10.0,SW,21.9,32.2,N/A,,Mostly Cloudy,220,2014-01-27 04:35:00
11:55 PM,42.8,32.0,66,29.74,10.0,SW,21.9,33.4,N/A,,Overcast,230,2014-01-27 04:55:00